Location: *
(49.4547°N, 7.9131°E)
Time: 00:08:07
(UTC+00:00)

Cosmos 1805 - Pass Details

Date: 22 September 2019
Orbit: 525 x 532 km, 82.5° (Epoch: 21 October)

Event Time Altitude Azimuth Distance (km) Brightness Sun altitude
Exits shadow 19:07:15 26° 154° (SSE) 1,067 4.4 -16.7°
Maximum altitude 19:09:05 47° 95° (E) 705 3.4 -17.0°
Drops below altitude 10° 19:12:51 10° 21° (NNE) 1,783 5.9 -17.6°
Sets 19:15:03 0° 15° (NNE) 2,676 6.9 -17.9°
